Regional Weather Roundup
Issued by NWS

Home | Current Version | Previous Version | Text Only | Print | Product List | Glossary Off
Versions: 1 2 3 4 5 6 7 8 9 10 11 12 13 14 15 16 17 18 19 20 21 22 23 24 25 26 27 28 29 30 31 32 33 34 35 36 37 38 39 40 41 42 43 44 45 46 47 48 49 50

000
ASUS44 KMEG 280400
RWRTN
TENNESSEE HOURLY STATE WEATHER ROUNDUP
NATIONAL WEATHER SERVICE MEMPHIS TN
1100 PM CDT WED MAY 27 2015

TNZ002-004-019-021-049-052-054-088>092-280500-
WEST TENNESSEE

CITY           SKY/WX    TMP DP  RH WIND       PRES   REMARKS
MEMPHIS INTL   MOCLDY    71  65  81 SE7       30.13R
NWS MEMPHIS      N/A     69 N/A N/A MISG        N/A
JACKSON        CLOUDY    69  65  86 CALM      30.15R
DYERSBURG      CLOUDY    70  55  60 SE6       30.15R
PARIS          CLEAR     66  66 100 SE3       30.17R
LEXINGTON      CLEAR     66  66 100 CALM      30.15S
$$

TNZ008-025-027-028-033-062-065-066-280500-
NORTH MIDDLE TENNESSEE

CITY           SKY/WX    TMP DP  RH WIND       PRES   REMARKS
NASHVILLE      CLOUDY    69  66  90 S6        30.19F
CLARKSVILLE    CLOUDY    68  66  93 S3        30.17R
COOKEVILLE     CLEAR     66  66 100 CALM      30.21S
CROSSVILLE     CLOUDY    69  61  75 VRB3      30.25F
$$

TNZ061-075-076-078-094-096-097-280500-
SOUTH MIDDLE TENNESSEE

CITY           SKY/WX    TMP DP  RH WIND       PRES   REMARKS
FAYETTEVILLE     N/A    N/A N/A N/A MISG      30.21F
TULLAHOMA      CLOUDY    64  63  94 S7        30.23F
WINCHESTER     MOCLDY    64  64 100 S6        30.24F
COLUMBIA       CLOUDY    68  66  94 S3        30.17F
SHELBYVILLE    CLOUDY    70  70 100 SE8       30.22F
$$

TNZ017-018-042-046-047-280500-
NORTHEAST TENNESSEE

CITY           SKY/WX    TMP DP  RH WIND       PRES   REMARKS
TRI CITIES     MOCLDY    65  60  84 CALM      30.22F
ELIZABETHTON   CLEAR     64  59  82 CALM      30.24F
$$

TNZ012-013-036-069-073-074-280500-
CENTRAL EAST TENNESSEE

CITY           SKY/WX    TMP DP  RH WIND       PRES   REMARKS
KNOXVILLE      CLOUDY    73  62  68 S3        30.20S
OAK RIDGE      CLOUDY    72  67  84 CALM      30.21S
$$

TNZ083-085-099-280500-
SOUTHEAST TENNESSEE

CITY           SKY/WX    TMP DP  RH WIND       PRES   REMARKS
CHATTANOOGA    CLOUDY    73  63  70 SW7       30.22R
$$

SKY/WX REPORTED AS FAIR MEANS FEW OR NO CLOUDS BELOW
12 THOUSAND FEET.



USA.gov is the U.S. government's official web portal to all federal, state and local government web resources and services.